DW2270 Weather Reports


Display with metric or nautical units.
time (UTC)temp
F
wind
direction
speed
MPH
gust
MPH
rain 1hr
in
rain 24hr
in
rain mn
in
humidity
%
barometer
mb
20260831012259 91 87 0.0 6.0 0.00 0.00 0.00 52 1012.5
20260831011248 91 113 1.0 6.0 0.00 0.00 0.00 51 1012.5
20260831010216 92 88 0.0 5.0 0.00 0.00 0.00 51 1012.4
20260831005229 92 78 1.0 3.0 0.00 0.00 0.00 50 1012.4
20260831004248 93 115 0.0 4.0 0.00 0.00 0.00 50 1012.2
20260831003308 93 94 0.0 4.0 0.00 0.00 0.00 50 1012.2
20260831002244 94 88 0.0 2.0 0.00 0.00 0.00 50 1012.2
20260831001306 94 88 1.0 5.0 0.00 0.00 0.00 49 1012.1
20260831000238 95 111 0.0 7.0 0.00 0.00 0.00 48 1012.0
20260830234114 96 129 0.0 6.0 0.00 0.00 0.00 46 1012.1
20260830233105 97 157 0.0 7.0 0.00 0.00 0.00 45 1012.0
20260830232114 97 118 1.0 7.0 0.00 0.00 0.00 44 1011.9
20260830231138 98 111 1.0 6.0 0.00 0.00 0.00 43 1012.0
20260830230149 99 155 1.0 5.0 0.00 0.00 0.00 42 1012.0
20260830224011 99 90 1.0 6.0 0.00 0.00 0.00 41 1012.1
20260830215717 99 61 1.0 1.0 0.00 0.00 0.00 42 1012.2
20260830214712 99 122 0.0 11.0 0.00 0.00 0.00 41 1012.3
20260830213721 100 119 1.0 11.0 0.00 0.00 0.00 41 1012.3
20260830212727 100 263 1.0 6.0 0.00 0.00 0.00 40 1012.6
20260830211745 100 165 0.0 6.0 0.00 0.00 0.00 41 1012.7
20260830205617 100 71 1.0 8.0 0.00 0.00 0.00 41 1013.1
20260830204544 100 78 1.0 8.0 0.00 0.00 0.00 41 1013.3
20260830203532 101 79 0.0 4.0 0.00 0.00 0.00 42 1013.3
20260830202517 100 100 0.0 3.0 0.00 0.00 0.00 43 1013.5
20260830201519 100 173 1.0 4.0 0.00 0.00 0.00 43 1013.6
20260830200453 99 119 1.0 8.0 0.00 0.00 0.00 43 1013.7
20260830194303 99 152 1.0 8.0 0.00 0.00 0.00 43 1014.2
20260830191015 98 94 0.0 6.0 0.00 0.00 0.00 48 1014.7
20260830190018 98 321 0.0 6.0 0.00 0.00 0.00 47 1014.8
20260830185042 97 121 1.0 5.0 0.00 0.00 0.00 47 1015.0
20260830184104 97 199 1.0 6.0 0.00 0.00 0.00 47 1015.1
20260830183029 97 142 0.0 6.0 0.00 0.00 0.00 50 1015.4
20260830182041 96 113 1.0 6.0 0.00 0.00 0.00 50 1015.5
20260830181049 96 131 0.0 1.0 0.00 0.00 0.00 51 1015.6
20260830180101 96 176 0.0 3.0 0.00 0.00 0.00 51 1015.8
20260830175053 95 110 0.0 3.0 0.00 0.00 0.00 53 1015.9
20260830172947 94 261 0.0 2.0 0.00 0.00 0.00 54 1016.3
20260830170826 94 131 0.0 3.0 0.00 0.00 0.00 54 1016.4
20260830165832 94 130 1.0 3.0 0.00 0.00 0.00 54 1016.4
20260830164833 93 153 1.0 5.0 0.00 0.00 0.00 53 1016.5
20260830163853 93 98 1.0 5.0 0.00 0.00 0.00 54 1016.5
20260830162903 93 111 0.0 5.0 0.00 0.00 0.00 53 1016.6
20260830161843 92 81 1.0 4.0 0.00 0.00 0.00 52 1016.7
20260830153322 88 155 0.0 2.0 0.00 0.00 0.00 14 1016.7
20260830152316 87 221 0.0 2.0 0.00 0.00 0.00 3 1016.7
20260830151329 86 86 0.0 2.0 0.00 0.00 0.00 1 1016.7
20260830145152 83 84 0.0 2.0 0.00 0.00 0.00 1 1016.6
20260830144142 82 95 0.0 0.0 0.00 0.00 0.00 1 1016.6
20260830140850 80 74 0.0 2.0 0.00 0.00 0.00 1 1016.7
20260830135827 80 63 0.0 1.0 0.00 0.00 0.00 1 1016.6
20260830134804 79 63 0.0 1.0 0.00 0.00 0.00 1 1016.5
20260830133749 79 62 0.0 0.0 0.00 0.00 0.00 1 1016.5
20260830132724 78 61 0.0 0.0 0.00 0.00 0.00 1 1016.4
20260830131724 77 61 0.0 0.0 0.00 0.00 0.00 1 1016.3
20260830130727 77 61 0.0 0.0 0.00 0.00 0.00 1 1016.3
20260830125728 76 61 0.0 0.0 0.00 0.00 0.00 1 1016.2
20260830124722 76 61 0.0 0.0 0.00 0.00 0.00 1 1016.1
20260830123657 76 61 0.0 0.0 0.00 0.00 0.00 1 1016.0
20260830122718 76 61 0.0 0.0 0.00 0.00 0.00 1 1015.9
20260830121712 76 61 0.0 0.0 0.00 0.00 0.00 1 1016.0
20260830120706 76 61 0.0 0.0 0.00 0.00 0.00 1 1015.9
20260830115641 76 61 0.0 0.0 0.00 0.00 0.00 1 1015.8
20260830114614 77 61 0.0 0.0 0.00 0.00 0.00 1 1015.8
20260830113556 77 61 0.0 0.0 0.00 0.00 0.00 1 1015.8
20260830112536 77 61 0.0 0.0 0.00 0.00 0.00 1 1015.6
20260830111521 77 61 0.0 0.0 0.00 0.00 0.00 1 1015.6
20260830110532 77 61 0.0 0.0 0.00 0.00 0.00 1 1015.5
20260830105519 77 61 0.0 0.0 0.00 0.00 0.00 1 1015.4
20260830104530 77 61 0.0 0.0 0.00 0.00 0.00 1 1015.4
20260830103531 77 61 0.0 0.0 0.00 0.00 0.00 1 1015.3
20260830101415 78 61 0.0 0.0 0.00 0.00 0.00 1 1015.2
20260830100409 78 61 0.0 0.0 0.00 0.00 0.00 1 1015.1
20260830095403 78 61 0.0 0.0 0.00 0.00 0.00 1 1014.9
20260830093321 78 61 0.0 0.0 0.00 0.00 0.00 1 1014.9
20260830092255 78 61 0.0 0.0 0.00 0.00 0.00 1 1014.9
20260830091259 78 61 0.0 0.0 0.00 0.00 0.00 1 1015.0
20260830085122 79 61 0.0 0.0 0.00 0.00 0.00 1 1015.1
20260830083006 79 61 0.0 0.0 0.00 0.00 0.00 1 1015.0
20260830082015 79 61 0.0 0.0 0.00 0.00 0.00 1 1015.1
20260830081005 80 61 0.0 0.0 0.00 0.00 0.00 1 1015.1
20260830080004 80 61 0.0 0.0 0.00 0.00 0.00 1 1015.1
20260830075004 80 61 0.0 0.0 0.00 0.00 0.00 1 1015.1
20260830074006 80 61 0.0 0.0 0.00 0.00 0.00 1 1015.2
20260830072942 81 61 0.0 0.0 0.00 0.00 0.00 1 1015.2
20260830072005 81 62 0.0 0.0 0.00 0.00 0.00 1 1015.3
20260830070942 81 61 0.0 0.0 0.00 0.00 0.00 1 1015.3
20260830065953 81 61 0.0 0.0 0.00 0.00 0.00 1 1015.2
20260830065015 81 61 0.0 0.0 0.00 0.00 0.00 1 1015.2
20260830063955 82 61 0.0 0.0 0.00 0.00 0.00 1 1015.2
20260830062940 82 65 0.0 0.0 0.00 0.00 0.00 1 1015.2
20260830061915 82 0 0.0 0.0 0.00 0.00 0.00 1 1015.2
20260830060848 82 0 0.0 0.0 0.00 0.00 0.00 1 1015.2
20260830055824 83 0 0.0 0.0 0.00 0.00 0.00 1 1015.2
20260830053701 83 0 0.0 0.0 0.00 0.00 0.00 1 1015.1
20260830052710 84 0 0.0 0.0 0.00 0.00 0.00 1 1015.2
20260830051650 84 0 0.0 1.0 0.00 0.00 0.00 1 1015.2
20260830050654 84 0 0.0 0.0 0.00 0.00 0.00 2 1015.2
20260830045628 84 0 0.0 0.0 0.00 0.00 0.00 4 1015.1
20260830044604 84 98 0.0 2.0 0.00 0.00 0.00 5 1015.2
20260830043552 85 90 0.0 1.0 0.00 0.00 0.00 6 1015.1
20260830042601 85 90 0.0 0.0 0.00 0.00 0.00 6 1015.2
20260830041601 85 95 0.0 0.0 0.00 0.00 0.00 8 1015.2
20260830040626 86 95 0.0 1.0 0.00 0.00 0.00 10 1015.0
20260830035620 86 79 0.0 3.0 0.00 0.00 0.00 12 1015.0
20260830034549 86 88 0.0 3.0 0.00 0.00 0.00 15 1014.9
20260830032434 87 86 0.0 1.0 0.00 0.00 0.00 24 1014.8
20260830031423 87 86 0.0 1.0 0.00 0.00 0.00 27 1014.8
20260830030417 87 109 0.0 5.0 0.00 0.00 0.00 29 1014.8
20260830025355 87 109 0.0 5.0 0.00 0.00 0.00 31 1014.6
20260830024338 87 103 0.0 4.0 0.00 0.00 0.00 34 1014.5
20260830023311 87 111 0.0 2.0 0.00 0.00 0.00 39 1014.3
20260830022320 88 128 0.0 1.0 0.00 0.00 0.00 44 1014.1
20260830021310 88 51 0.0 2.0 0.00 0.00 0.00 48 1013.9
20260830020310 88 120 0.0 1.0 0.00 0.00 0.00 51 1013.7
20260830015245 88 120 0.0 0.0 0.00 0.00 0.00 53 1013.5
20260830013030 90 120 0.0 0.0 0.00 0.00 0.00 54 1013.3